Location: St Paul
(33.4390°N, 83.7350°W)
Time: 08:06:25
(UTC-04:00)

Cosmos 1680 Rocket - Pass Details

Date: 06 October 2017
Orbit: 761 x 781 km, 74.1° (Epoch: 21 October)

Event Time Altitude Azimuth Distance (km) Brightness Sun altitude
Rises 19:42:25 0° 171° (S) 3,247 6.7 -7.1°
Reaches altitude 10° 19:45:00 10° 161° (SSE) 2,322 5.8 -7.6°
Maximum altitude 19:49:38 32° 100° (E) 1,316 4.2 -8.6°
Drops below altitude 10° 19:54:16 10° 38° (NE) 2,327 5.6 -9.6°
Sets 19:56:51 0° 29° (NNE) 3,255 6.5 -10.1°
